Weather History for Gage, OK

Change the Weather History Date:

Tuesday, December 18, 2012

  Actual Average Record
Temperature  
Mean Temperature 44 °F -  
Max Temperature 59 °F 49 °F 74 °F (1978)
Min Temperature 30 °F 24 °F 0 °F (1964)
Degree Days  
Heating Degree Days 20    
Moisture  
Dew Point 21 °F    
Average Humidity 47    
Maximum Humidity 79    
Minimum Humidity 17    
Precipitation  
Precipitation 0.00 in - - ()
Sea Level Pressure  
Sea Level Pressure 29.77 in    
Wind  
Wind Speed 9 mph (South)    
Max Wind Speed 16 mph    
Max Gust Speed -    
Visibility 10 miles    
Events      
Averages and records for this station are not official NWS values.
T = Trace of Precipitation, MM = Missing Value Source: NWS Daily Summary

Daily Weather History Graph

Daily Weather History Graph

Search for Another Location

Airport:

Trip Planner

Search our weather history database for the weather conditions in past years. The results will help you decide how hot, cold, wet, or windy it might be!

Date:

Astronomy

Dec. 18, 2012 Rise Set
Actual Time 7:45 AM CST 5:26 PM CST
Civil Twilight 7:16 AM CST 5:55 PM CST
Nautical Twilight 6:44 AM CST 6:27 PM CST
Astronomical Twilight 6:12 AM CST 6:59 PM CST
Moon 11:35 AM CST (12/18) 11:44 PM CST (12/18)
Length of Visible Light 10h 38m
Length of Day
9h 41m
Waxing Crescent, 35% of the Moon is Illuminated
Dec 18
Waxing Crescent
Dec 19
First Quarter
Dec 28
Full
Jan 4
Last Quarter
Jan 11
New

Hourly Weather History & Observations

Time (CST) Temp. Windchill Dew Point Humidity Pressure Visibility Wind Dir Wind Speed Gust Speed Precip Events Conditions
12:53 AM 41.0 °F 32.8 °F 21.9 °F 47% 29.68 in 10.0 mi SSW 16.1 mph - N/A   Clear
1:53 AM 35.1 °F 32.2 °F 21.9 °F 59% 29.68 in 10.0 mi South 3.5 mph - N/A   Clear
2:53 AM 32.0 °F 26.4 °F 23.0 °F 69% 29.69 in 10.0 mi SW 5.8 mph - N/A   Clear
3:53 AM 33.1 °F 24.9 °F 24.1 °F 70% 29.70 in 10.0 mi WSW 10.4 mph - N/A   Clear
4:53 AM 33.1 °F 26.1 °F 25.0 °F 72% 29.72 in 10.0 mi WSW 8.1 mph - N/A   Clear
5:53 AM 30.9 °F 21.2 °F 24.1 °F 76% 29.75 in 10.0 mi West 12.7 mph - N/A   Clear
6:53 AM 30.9 °F 22.2 °F 24.1 °F 76% 29.76 in 10.0 mi WSW 10.4 mph - N/A   Clear
7:53 AM 30.0 °F 21.7 °F 24.1 °F 79% 29.81 in 10.0 mi WSW 9.2 mph - N/A   Clear
8:53 AM 36.0 °F 27.5 °F 25.0 °F 64% 29.83 in 10.0 mi West 12.7 mph - N/A   Clear
9:53 AM 41.0 °F 35.8 °F 26.1 °F 55% 29.84 in 10.0 mi West 8.1 mph - N/A   Clear
10:53 AM 52.0 °F - 21.0 °F 30% 29.84 in 10.0 mi NNW 9.2 mph - N/A   Clear
11:53 AM 57.0 °F - 15.1 °F 19% 29.82 in 10.0 mi North 10.4 mph - N/A   Clear
12:53 PM 57.9 °F - 16.0 °F 19% 29.79 in 10.0 mi North 9.2 mph - N/A   Clear
1:53 PM 59.0 °F - 14.0 °F 17% 29.78 in 10.0 mi NNE 5.8 mph - N/A   Clear
2:53 PM 57.9 °F - 12.9 °F 17% 29.78 in 10.0 mi NE 6.9 mph - N/A   Clear
3:53 PM 55.9 °F - 15.1 °F 20% 29.78 in 10.0 mi ENE 5.8 mph - N/A   Clear
4:53 PM 55.9 °F - 16.0 °F 21% 29.78 in 10.0 mi East 4.6 mph - N/A   Clear
5:53 PM 46.9 °F - 18.0 °F 32% 29.80 in 10.0 mi ESE 4.6 mph - N/A   Clear
6:53 PM 39.0 °F 33.4 °F 21.0 °F 49% 29.80 in 10.0 mi SE 8.1 mph - N/A   Clear
7:53 PM 39.9 °F 34.5 °F 21.0 °F 47% 29.81 in 10.0 mi SSE 8.1 mph - N/A   Clear
8:53 PM 39.9 °F 34.5 °F 21.0 °F 47% 29.79 in 10.0 mi SSE 8.1 mph - N/A   Clear
9:53 PM 39.9 °F 33.9 °F 21.9 °F 49% 29.77 in 10.0 mi SE 9.2 mph - N/A   Clear
10:53 PM 42.1 °F 37.1 °F 23.0 °F 47% 29.73 in 10.0 mi SE 8.1 mph - N/A   Clear
11:53 PM 39.0 °F 35.7 °F 24.1 °F 55% 29.73 in 10.0 mi NE 4.6 mph - N/A   Clear